Location: Chmeln�
(49.6483°N, 14.9871°E)
Time: 08:44:40
(UTC+00:00)

ATLAS 2AS CENTAUR R/B - Pass Details

Date: 18 September 2020
Orbit: 939 x 1273 km, 63.7° (Epoch: 19 October)

Event Time Altitude Azimuth Distance (km) Brightness Sun altitude
Rises 21:03:07 0° 227° (SW) 4,206 5.7 -33.7°
Enters shadow 21:04:48 - 228° (SW) 3,632 5.4 -33.8°
Exits shadow 21:11:56 55° 246° (WSW) 1,501 3.3 -34.4°
Maximum altitude 21:13:53 76° 315° (NW) 1,308 3.1 -34.6°
Drops below altitude 10° 21:21:45 10° 41° (NE) 3,209 5.4 -35.2°
Sets 21:24:29 0° 44° (NE) 4,144 6.0 -35.4°
